Flag for Vietnam Weather past 2 weeks in Ho Chi Minh, Vietnam

Now
82 °F

Passing clouds.


Feels Like: 87 °F
Forecast: 76 / 90 °F
Wind: 7 mph from Southwest

Location: Ho Chi Minh

Current Time: Sep 21, 2014 at 9:18:09 PM

Latest Report: Sep 21, 2014 at 9:00 PM


Visibility: N/A

Pressure: 29.89 "Hg

Humidity: 70%

Dew point: 72 °F

Location of Ho Chi MinhLocation

Historic Weather in Ho Chi Minh — Graph

°F

Ho Chi Minh temperature yesterday

Maximum temperature yesterday: 93 °F (at 12:30 PM)
Minimum temperature yesterday: 75 °F (at 4:00 PM)
Average temperature yesterday: 83 °F

Past Weeks' High & Low Weather Summary

 TemperatureHumidityPressure
High93 °F (Sep 19, 11:30 AM)94% (Sep 7, 1:30 AM)29.89 "Hg (Sep 7, 1:30 AM)
Low73 °F (Sep 18, 5:00 AM)52% (Sep 17, 1:00 PM)29.59 "Hg (Sep 16, 3:00 PM)
Average82 °F78%29.77 "Hg
* Reported Sep 6 8:00 PM — Sep 21 8:00 PM, Ho Chi Minh, Weather by CustomWeather, © 2014

Note: Actual official high and low records may vary slightly from our data, if they occured in-between our weather recording intervals... More about our weather records

Advertising

Ho Chi Minh weather history for previous 24 hours

 ConditionsComfort  
Time TempWeatherWind HumidityBarometerVisibility
8:00 PM
Sep 21
82 °FPassing clouds.5 mph66%29.86 "HgN/A
7:30 PM82 °FPassing clouds.8 mph66%29.86 "HgN/A
7:00 PM81 °FPassing clouds.6 mph74%29.83 "HgN/A
6:30 PM82 °FPassing clouds.10 mph70%29.83 "HgN/A
6:00 PM82 °FPassing clouds.6 mph70%29.83 "HgN/A
5:30 PM84 °FScattered clouds.7 mph70%29.80 "HgN/A
5:00 PM84 °FScattered clouds.8 mph74%29.80 "HgN/A
4:30 PM84 °FScattered clouds.9 mph70%29.80 "HgN/A
4:00 PM86 °FScattered clouds.8 mph66%29.77 "HgN/A
3:30 PM84 °FScattered clouds.13 mph70%29.77 "HgN/A
3:00 PM84 °FThunderstorms. Scattered clouds.13 mph70%29.77 "HgN/A
2:30 PM86 °FThunderstorms. Scattered clouds.17 mph66%29.77 "HgN/A
2:00 PM90 °FThunderstorms. Scattered clouds.15 mph55%29.77 "HgN/A
1:30 PM90 °FScattered clouds.13 mph59%29.77 "HgN/A
1:00 PM90 °FScattered clouds.9 mph63%29.77 "HgN/A
12:30 PM90 °FPartly sunny.10 mph59%29.80 "HgN/A
12:00 PM90 °FPartly sunny.12 mph63%29.83 "HgN/A
11:30 AM91 °FPartly sunny.12 mph59%29.86 "HgN/A
11:00 AM90 °FScattered clouds.9 mph67%29.86 "HgN/A
10:30 AM88 °FScattered clouds.10 mph66%29.86 "HgN/A
10:00 AM88 °FScattered clouds.9 mph66%29.86 "HgN/A
9:30 AM86 °FScattered clouds.7 mph70%29.86 "HgN/A
9:00 AM86 °FScattered clouds.8 mph75%29.86 "HgN/A
8:30 AM84 °FScattered clouds.6 mph79%29.86 "HgN/A
8:00 AM82 °FScattered clouds.6 mph84%29.86 "HgN/A
7:30 AM82 °FPassing clouds.6 mph84%29.86 "HgN/A
7:00 AM81 °FPassing clouds.6 mph89%29.83 "HgN/A
6:30 AM81 °FPassing clouds.5 mph89%29.83 "HgN/A
6:00 AM79 °FPassing clouds.3 mph94%29.83 "HgN/A
5:30 AM79 °FPassing clouds.3 mph89%29.80 "HgN/A
5:00 AM79 °FPassing clouds.5 mph89%29.80 "HgN/A
4:30 AM79 °FPassing clouds.5 mph89%29.80 "HgN/A
4:00 AM79 °FPassing clouds.3 mph89%29.80 "HgN/A
3:30 AM79 °FPassing clouds.2 mph89%29.80 "HgN/A
3:00 AM79 °FPassing clouds.3 mph89%29.80 "HgN/A
2:30 AM79 °FPassing clouds.2 mph89%29.80 "HgN/A
2:00 AM79 °FPassing clouds.2 mph89%29.80 "HgN/A
1:30 AM79 °FPassing clouds.1 mph89%29.80 "HgN/A
1:00 AM79 °FPassing clouds.No wind84%29.80 "HgN/A
12:30 AM79 °FPassing clouds.No wind89%29.80 "HgN/A
Weather by CustomWeather, © 2014

See weather overviewHow to use our weather pages